RH
71 94 94 92 92 92 76 66 42 44 43 40 38 38 33 30 37 42 44 46 44 51 92 65 54 60 68 72 74 77 74 73 74 76 87 91 77 65 63 46 40 50 64 95 99 84 86 70 59
94 97 97 97 96 73 57 45 48 42 40 42 43 41 37 34 30 46 47 47 50 52 81 90 67 61 70 66 72 75 78 74 72 76 85 88 83 72 69 52 41 39 39 45 98 93 78 41 39
97 93 90 99 88 76 48 27 38 39 44 44 46 45 42 38 33 40 44 46 50 78 72 86 89 70 71 71 65 75 79 77 74 73 86 92 86 68 71 56 41 36 32 26 45 70 24 27 18
100 100 88 90 71 58 46 27 27 35 43 45 43 46 46 41 41 39 41 47 48 65 94 98 72 78 73 70 65 74 78 79 77 76 81 92 83 66 65 57 41 33 25 20 24 57 24 18 14
100 100 93 70 69 44 35 32 38 40 42 44 44 42 47 49 44 43 40 44 52 51 70 98 91 88 79 76 70 74 77 82 79 78 82 87 79 65 63 58 39 26 18 20 17 20 24 15 13
99 98 99 79 46 38 33 33 34 43 44 43 45 41 40 50 46 43 39 44 45 50 57 97 89 90 85 83 75 73 78 80 83 81 87 92 86 67 61 53 38 20 17 39 22 18 14 12 12
97 96 90 88 54 34 29 31 35 42 45 46 45 45 38 48 42 49 40 38 46 47 52 72 87 89 89 83 79 76 78 81 84 87 91 94 97 74 61 45 32 18 18 35 22 18 12 12 12
97 94 95 94 94 57 28 26 31 36 39 43 48 46 41 43 53 44 45 49 45 48 49 66 75 90 94 89 82 78 81 83 85 87 93 95 99 79 56 41 18 24 60 60 32 14 11 12 11
73 99 94 82 82 84 46 29 27 32 36 40 47 46 40 40 49 44 46 63 61 56 60 61 78 86 91 92 88 84 83 82 82 91 93 95 100 91 51 31 13 22 71 78 54 12 12 11 13
52 88 77 56 53 89 84 71 49 33 37 43 49 47 46 44 57 51 69 53 53 47 56 63 81 82 84 91 93 92 89 86 89 98 96 98 100 81 53 20 15 32 73 70 66 12 10 12 15
42 72 50 67 70 94 97 88 94 89 48 41 44 47 48 60 60 60 58 49 36 34 36 51 66 67 77 86 100 99 98 95 98 97 97 100 99 79 48 23 38 76 73 66 81 17 11 12 15
48 35 35 35 36 41 48 56 95 96 86 42 38 38 51 55 62 62 57 54 64 37 34 36 56 59 65 76 85 100 100 96 99 97 96 94 85 60 34 23 41 81 90 81 40 13 10 11 16
36 37 30 26 27 32 35 42 74 91 85 75 64 38 40 51 52 56 51 54 64 34 32 34 44 61 63 74 83 97 100 91 98 96 91 75 61 45 28 27 47 57 56 30 18 12 13 14 16
33 30 28 31 34 38 42 38 42 46 81 76 80 63 41 42 48 47 56 53 58 58 35 35 41 62 64 72 84 96 100 100 90 99 92 69 52 37 23 16 22 26 17 16 16 12 15 16 17
34 39 33 32 29 30 30 39 34 34 58 69 79 88 46 42 47 46 51 61 57 63 40 39 44 56 63 71 85 97 96 100 93 100 94 66 56 37 23 14 20 18 16 21 15 14 16 19 19
40 38 58 32 28 27 32 61 29 32 51 62 78 80 63 49 49 47 51 66 64 66 46 43 50 57 67 81 81 88 87 99 100 89 99 73 58 40 26 23 25 18 21 24 17 15 16 19 20
43 66 51 36 24 27 37 54 28 33 36 43 78 82 78 53 53 53 60 68 72 72 72 44 54 68 74 87 80 83 88 93 100 99 100 76 69 46 26 24 18 18 26 22 18 17 18 19 20
46 45 37 40 27 30 45 52 33 35 36 69 70 85 83 61 56 55 64 72 77 81 81 57 53 54 79 80 78 80 83 92 92 99 100 89 74 50 39 23 20 23 21 20 16 16 17 19 17
47 44 38 27 23 29 38 39 35 32 46 44 71 87 80 72 66 65 70 83 90 89 92 77 74 60 74 91 82 79 90 96 99 100 97 99 83 61 38 24 21 18 20 15 15 16 16 18 18
58 66 57 35 29 35 43 46 34 32 38 44 50 75 88 81 76 78 85 84 92 93 97 95 92 70 86 78 76 76 81 90 91 100 98 100 97 70 42 25 19 19 19 14 14 15 16 16 16
62 67 52 45 34 34 42 49 39 32 30 36 45 62 80 92 86 73 89 88 94 98 100 85 76 74 87 85 82 94 95 98 99 97 100 99 100 79 57 38 22 20 18 14 14 15 16 16 16
85 43 47 50 53 59 41 61 30 29 33 32 39 58 79 90 90 85 90 96 96 100 99 80 71 73 86 94 89 93 97 97 98 97 99 100 100 92 50 49 32 20 16 13 15 16 16 16 16
73 48 63 53 53 56 50 71 41 33 33 55 78 94 97 96 94 82 96 99 94 100 96 74 73 70 76 100 100 100 97 100 98 100 100 100 100 90 66 41 36 23 18 15 16 16 17 17 17
66 89 82 89 86 90 52 62 71 81 86 69 72 84 97 98 91 83 93 100 98 99 82 77 71 69 69 83 92 99 100 98 96 99 100 100 98 88 60 54 40 28 20 16 17 17 17 17 17
82 92 85 90 92 63 28 58 88 82 81 82 84 87 97 96 99 100 100 90 100 100 94 86 86 91 82 83 90 100 99 99 96 98 99 100 99 85 72 48 32 29 21 17 18 18 17 17 18
83 89 88 63 59 38 33 59 86 89 87 90 93 96 95 98 100 99 100 100 99 100 100 90 75 94 83 75 89 100 100 100 100 98 99 99 88 68 54 48 36 33 21 18 19 18 18 18 18
79 89 86 92 64 42 78 84 79 67 72 78 88 88 95 98 100 97 98 99 99 98 100 99 84 80 81 84 93 99 100 100 100 100 100 100 88 72 61 52 38 30 20 18 20 20 19 19 20
79 85 85 83 75 45 88 75 77 79 81 80 86 91 95 97 97 96 96 98 98 100 100 100 100 95 93 99 99 100 100 100 100 100 100 100 91 77 73 50 36 27 22 19 21 22 21 21 21
65 69 81 87 84 68 68 86 87 84 82 87 89 93 96 98 97 95 97 99 100 99 100 100 98 100 100 100 100 100 100 100 100 100 99 100 89 84 75 52 42 34 34 22 22 23 23 24 22
69 83 80 86 88 85 69 82 83 84 82 82 88 94 97 97 96 95 96 99 100 100 100 96 100 100 100 100 100 100 100 100 100 100 100 100 98 96 96 92 68 49 46 40 28 23 23 24 23
Wind_Speed
28 18 15 12 8 9 31 24 25 13 21 34 15 18 22 32 17 3 9 27 18 28 32 38 38 37 37 36 34 33 32 29 27 26 24 22 24 24 21 18 18 17 19 20 16 16 14 14 14
15 20 17 9 11 20 34 26 28 22 18 21 31 27 14 25 26 4 6 24 25 25 32 36 40 39 39 38 35 34 33 32 30 27 25 24 24 24 21 18 17 17 16 15 16 16 16 15 13
21 23 16 5 14 34 25 21 26 22 24 20 21 23 26 11 33 13 7 17 26 24 31 35 39 41 40 40 37 36 35 34 32 29 27 26 24 23 22 19 17 16 15 14 15 17 12 14 14
13 22 16 15 36 49 34 19 13 26 28 25 20 12 16 23 11 27 14 10 26 25 29 33 40 42 41 40 39 37 36 35 33 32 30 28 25 23 22 21 18 17 15 14 13 13 13 16 15
16 9 12 28 43 44 29 31 6 17 24 29 26 16 7 24 13 27 27 15 16 24 32 35 40 41 42 41 41 39 38 37 35 33 32 30 26 24 22 21 18 18 16 16 15 13 16 16 16
8 8 6 26 43 40 36 36 32 13 20 31 31 27 19 15 28 25 33 21 14 12 31 36 40 42 42 42 42 41 40 38 36 34 32 30 28 26 24 21 20 19 18 18 17 16 17 17 17
5 8 21 17 35 38 40 44 27 20 22 28 28 27 32 17 31 21 28 34 24 16 15 34 39 42 42 43 42 42 41 40 38 36 34 31 29 27 24 22 21 21 20 20 19 18 18 19 17
7 5 16 12 15 39 37 38 44 41 31 30 29 18 29 24 21 31 26 28 26 21 20 25 39 42 42 43 43 42 43 42 39 36 34 32 30 28 24 23 23 23 22 21 22 20 19 20 18
15 6 13 25 23 15 36 30 40 44 41 36 39 31 27 21 25 35 35 27 25 25 26 28 37 39 41 43 42 42 42 42 40 38 35 33 32 29 25 25 25 25 24 23 23 21 20 21 20
11 11 22 21 22 11 22 25 23 29 39 35 38 34 24 26 31 35 36 34 29 27 27 28 33 38 40 41 43 44 43 43 41 41 38 36 34 30 26 27 28 27 26 24 24 23 23 22 22
9 19 24 22 21 13 13 22 19 17 26 40 41 37 35 20 28 30 30 31 31 27 28 32 34 36 37 40 42 49 48 49 46 44 41 40 37 32 29 30 31 29 28 27 25 26 26 24 24
13 21 23 26 27 27 23 24 12 23 28 35 47 42 28 29 25 29 30 29 29 30 31 32 33 38 39 39 44 45 52 54 51 48 45 44 41 35 32 34 34 31 29 27 29 28 25 24 23
18 18 26 23 23 25 29 23 23 22 39 42 32 43 44 37 38 31 30 27 27 32 31 34 34 39 40 41 45 49 44 56 54 52 46 43 40 37 35 37 38 37 36 33 30 28 28 27 25
19 23 24 26 27 25 24 26 26 28 26 37 27 28 46 43 46 44 35 35 33 29 35 35 36 40 39 40 45 48 49 55 55 56 49 45 42 39 40 40 41 40 34 33 31 31 31 29 26
25 23 21 21 23 19 27 32 25 37 30 37 32 32 40 46 44 44 41 39 37 32 37 35 37 40 40 42 44 44 41 52 55 54 47 46 42 39 41 39 41 39 36 35 34 33 31 30 28
19 21 20 22 18 20 22 32 22 21 19 21 29 37 39 35 38 39 38 38 34 33 40 35 36 38 40 41 42 39 31 49 58 52 55 45 43 41 41 41 42 40 38 35 34 34 33 31 29
18 21 24 28 21 21 19 29 15 17 27 27 25 36 38 36 35 31 31 32 33 33 31 38 35 36 39 39 39 37 38 38 54 57 55 47 45 43 42 43 43 41 40 37 36 36 34 32 30
20 20 22 22 19 15 20 23 16 21 24 19 21 35 35 32 37 34 29 27 28 29 29 35 40 36 38 39 38 34 35 36 43 50 51 48 45 43 43 44 44 43 41 40 38 37 35 32 29
23 25 26 24 23 20 22 23 21 18 22 16 14 19 40 34 27 25 26 24 24 25 28 31 35 39 39 42 45 40 39 38 40 57 48 50 46 44 45 44 45 44 43 41 39 37 36 33 31
20 23 25 23 22 17 21 24 21 20 17 20 18 20 16 25 22 24 22 24 24 25 27 29 31 34 38 43 46 44 44 42 43 48 44 53 49 47 47 46 47 46 45 43 42 40 38 35 32
16 20 21 23 16 18 22 24 24 19 22 21 22 19 17 21 30 23 17 22 23 27 29 33 30 28 38 42 43 44 43 47 51 52 56 53 55 49 48 45 46 47 46 45 43 42 39 38 36
18 17 20 20 12 11 1 7 13 17 18 17 15 15 17 14 21 16 15 18 22 26 30 32 30 30 35 42 44 44 46 54 58 59 60 56 59 51 42 46 46 47 45 43 42 40 37 36 35
12 12 14 15 15 15 19 7 8 14 14 9 15 22 21 23 15 8 11 19 22 25 35 35 34 29 28 35 42 43 44 46 46 50 55 51 52 46 47 43 46 46 44 43 42 41 38 36 33
17 11 11 10 9 9 19 9 3 7 10 15 16 22 25 27 20 15 2 8 21 29 37 38 34 27 23 25 28 33 39 41 45 47 56 57 57 54 49 46 47 44 44 43 41 40 37 35 33
11 6 3 6 7 8 7 10 7 11 12 14 15 21 24 24 19 2 17 14 3 24 32 34 31 27 23 22 22 32 37 39 39 44 48 60 61 61 57 52 48 45 45 42 41 39 38 36 34
18 6 5 3 4 5 10 7 5 10 13 17 19 20 24 27 23 16 2 14 21 16 29 31 37 28 25 25 25 33 42 36 40 37 49 61 60 65 60 52 49 46 44 42 41 40 38 37 34
10 5 9 7 3 5 6 5 5 13 16 16 22 25 27 29 27 18 9 1 8 16 21 29 30 35 33 33 27 33 36 40 41 44 56 58 60 62 58 52 49 46 44 43 41 41 39 38 35
4 8 1 5 3 4 5 4 5 17 19 18 19 22 27 29 30 23 16 8 3 3 3 22 28 45 40 30 24 31 30 33 32 41 54 58 63 61 60 49 46 46 46 44 43 42 40 39 38
8 6 5 5 5 4 4 4 8 12 13 15 15 21 24 26 28 27 20 12 8 4 3 7 23 35 34 27 24 26 26 32 32 35 51 58 58 55 53 52 52 51 49 50 47 44 42 41 39
11 11 5 3 5 4 3 4 9 11 12 14 17 21 22 24 26 26 23 20 13 9 6 7 11 26 31 29 29 29 22 23 26 30 36 53 55 52 49 55 56 52 51 49 46 45 43 42 41
Wind_Direction
227 224 227 220 231 234 245 226 236 221 210 213 211 195 210 209 179 219 192 196 201 192 178 184 184 184 183 185 184 181 179 180 178 176 177 176 174 171 165 159 153 151 148 146 148 160 153 154 149
220 219 217 224 233 237 242 225 224 222 198 201 215 211 217 219 214 270 200 194 179 189 181 183 185 187 185 186 186 185 183 181 179 180 178 180 179 177 172 167 162 162 167 163 158 158 159 155 161
225 209 212 217 232 232 233 216 221 208 202 187 206 216 220 219 216 211 195 194 188 179 184 186 188 188 189 188 188 188 185 183 182 181 181 181 187 184 178 175 171 172 177 177 174 171 166 153 159
220 210 224 227 229 239 239 243 231 217 204 202 196 207 223 216 214 205 213 180 198 188 183 191 193 192 192 191 189 188 187 187 186 185 186 186 195 183 179 178 178 178 181 179 172 171 162 155 155
264 232 204 226 239 244 238 237 296 222 205 207 198 203 197 201 203 196 211 184 184 202 194 195 193 195 194 193 190 190 189 189 189 190 191 191 200 191 185 181 182 185 183 180 178 174 163 156 152
264 268 214 217 232 241 241 238 234 227 228 209 213 223 215 199 204 198 201 199 194 186 203 194 195 197 197 195 192 191 191 191 192 192 193 194 203 196 189 184 183 188 184 174 177 168 162 159 154
253 262 246 235 238 240 231 230 236 247 224 226 212 225 221 213 202 204 211 217 209 206 202 201 197 200 199 197 195 194 194 193 194 195 197 200 200 198 190 184 184 188 186 178 174 169 164 157 154
261 271 249 249 252 250 241 229 234 223 234 223 214 223 218 210 193 202 204 200 208 201 195 201 202 201 201 200 199 198 196 195 196 197 198 202 199 199 191 185 185 184 177 170 168 169 165 158 152
253 256 245 254 250 263 265 241 237 236 234 225 213 219 213 215 210 202 202 197 197 198 195 195 204 208 207 204 203 200 198 197 197 197 199 207 199 199 190 185 184 183 173 168 168 170 167 160 153
239 251 252 258 270 309 330 313 292 240 225 223 222 222 216 205 200 196 198 200 198 201 200 199 200 208 212 210 206 203 200 198 197 196 198 205 201 198 185 184 181 180 174 172 170 170 167 162 157
253 246 260 271 296 309 298 311 318 314 234 220 219 217 209 196 199 196 196 200 210 219 212 208 205 210 213 214 212 206 203 197 196 197 198 202 200 196 188 179 176 175 176 171 172 171 168 168 165
268 263 269 279 281 282 281 292 286 288 281 246 230 226 209 210 204 204 211 215 214 218 221 218 211 215 215 219 220 207 201 195 197 196 202 202 201 196 188 183 177 177 174 171 181 173 172 168 166
260 265 274 280 290 288 281 273 263 273 276 286 278 228 227 217 223 220 221 216 213 221 223 220 214 215 217 219 221 218 196 203 197 197 204 203 200 199 193 185 181 182 182 183 177 173 172 170 169
264 278 279 282 283 282 279 270 254 254 264 280 271 265 221 219 221 222 221 224 224 222 231 223 223 215 217 219 222 216 201 207 208 200 201 202 201 201 195 193 189 189 184 183 178 176 174 173 171
258 271 276 271 280 276 275 275 255 258 248 256 271 271 232 219 223 225 224 224 226 226 230 228 224 219 217 221 222 221 214 193 205 200 203 199 203 203 198 194 191 191 186 182 180 178 177 175 173
257 261 270 274 275 280 273 276 283 266 246 251 255 264 250 221 224 226 224 224 222 220 224 227 226 221 218 216 220 226 223 207 198 213 206 198 205 204 198 192 192 190 185 184 182 180 178 177 176
251 259 265 275 271 283 263 268 279 260 241 245 256 247 247 222 226 225 221 220 217 216 216 228 225 214 214 213 218 221 216 216 203 206 203 198 204 203 200 194 194 189 186 184 184 181 182 178 178
259 257 262 269 269 275 288 284 282 264 259 262 236 238 253 230 227 228 226 221 216 215 215 224 225 219 212 214 215 219 215 211 216 214 205 200 203 205 200 198 193 190 188 186 185 185 181 182 181
268 273 272 266 272 273 274 276 269 276 254 253 249 296 219 228 223 221 222 219 216 213 212 215 216 222 211 209 214 214 208 212 218 220 216 206 203 203 203 199 195 191 192 189 187 186 183 182 184
262 262 263 271 271 274 275 275 266 262 249 243 226 260 260 223 222 222 221 219 217 213 207 206 211 219 215 216 218 215 213 217 217 220 228 206 208 203 205 200 197 193 192 190 189 190 183 188 185
248 252 266 267 292 281 272 270 262 251 246 239 228 232 254 243 221 218 221 219 213 210 203 208 209 207 210 210 210 211 214 216 215 218 212 211 209 203 203 201 199 196 195 192 191 193 193 190 187
262 258 256 259 259 255 286 285 280 209 223 223 232 220 262 259 221 218 224 220 213 205 200 201 204 204 207 209 209 210 204 206 206 211 208 216 212 195 200 205 200 199 196 195 194 196 196 198 194
260 283 257 255 243 255 263 256 325 184 203 42 15 12 342 247 207 190 229 231 216 202 194 201 198 199 203 212 215 211 209 208 211 214 214 213 195 192 197 208 205 202 200 198 198 198 198 200 203
272 271 240 252 234 237 243 220 65 20 356 356 359 360 354 5 232 235 143 213 217 199 201 192 185 190 200 210 215 222 219 214 212 216 210 202 199 191 191 208 210 203 204 202 201 202 201 202 204
360 239 252 182 203 245 222 191 55 23 16 12 1 356 358 0 33 194 244 263 242 178 195 189 189 202 211 217 228 228 227 221 221 224 208 187 189 188 194 198 209 206 206 204 205 204 206 206 207
296 248 267 257 229 271 168 188 88 34 22 18 15 2 6 7 11 26 324 253 273 174 190 204 200 202 209 216 227 228 215 222 223 219 206 194 196 186 195 196 206 207 206 207 207 207 209 210 210
330 315 339 285 247 258 119 96 116 18 15 13 10 9 8 7 3 10 22 291 257 278 170 196 205 198 211 218 220 219 224 221 216 206 201 201 195 192 195 196 201 206 206 208 209 212 210 213 214
38 338 337 234 275 246 102 97 28 0 356 0 8 3 2 4 5 8 7 4 20 264 235 170 181 204 212 213 214 219 230 223 220 213 204 205 200 199 196 197 202 204 207 210 213 214 212 215 217
15 20 347 284 277 300 187 104 9 355 356 358 3 3 358 2 3 5 360 5 359 74 283 137 176 179 202 204 218 222 228 228 221 219 208 202 201 201 198 199 200 207 210 210 213 215 214 217 219
73 4 344 296 8 347 326 90 15 0 358 6 6 360 360 3 5 4 8 10 19 20 110 297 142 165 185 198 212 223 220 231 216 213 213 209 205 208 209 204 204 207 213 215 214 215 217 220 222